Weather WX

World > North America > United States > Michigan

Grand Rapids, Michigan Regional Weather

Lat: 42.96N, Lon: 85.66W
Wx Zone: MIZ057
Warning FLW WEATHER ALERT - (More Info. Click Here) Warning
Feedback

Grand Rapids, MI Regional Weather

Expires:201906201600;;789524
ASUS43 KDTX 201501
RWRMI 
MICHIGAN HOURLY REGIONAL WEATHER ROUNDUP
NATIONAL WEATHER SERVICE DETROIT/PONTIAC MI
1100 AM EDT THU JUN 20 2019

NOTE: "FAIR" INDICATES FEW OR NO CLOUDS BELOW 12,000 FEET WITH NO
SIGNIFICANT WEATHER AND/OR OBSTRUCTION TO VISIBILITY.


MIZ043>046-050>051-056>058-064>065-071>073-077>080-201600-
SOUTHWEST LOWER MICHIGAN
  
CITY           SKY/WX    TMP DP  RH WIND       PRES   REMARKS
BATTLE CREEK   LGT RAIN  63  61  93 NE9       29.62S                  
BENTON HARBOR  LGT RAIN  64  61  90 VRB5      29.61S                  
BIG RAPIDS     LGT RAIN  60  58  94 N6        29.70S                  
COLDWATER      LGT RAIN  62  62 100 N9        29.59S                  
HOLLAND        CLOUDY    63  32  31 NE6       29.65S                  
GRAND RAPIDS   RAIN      60  58  92 NE10      29.66R FOG              
IONIA          RAIN      59  58  95 N9        29.66R                  
KALAMAZOO      LGT RAIN  63  60  90 N9        29.62S                  
LUDINGTON      FAIR      64  58  80 NE6       29.70F                  
MARSHALL       LGT RAIN  62  62 100 CALM      29.61S                  
MOUNT PLEASANT RAIN      60  60  99 N7        29.68S                  
MUSKEGON       LGT RAIN  63  59  87 NE8       29.67F FOG              
SOUTH HAVEN    CLOUDY    64  62  96 NE9       29.63S                  
$$

SKY/WX - Weather  TMP - Temperature  DP - Dew Point  RH - Relative Humidity
WIND - Wind Direction/Speed PRES - Barometric Pressure VSB - Visibility
WCI - Wind Chill Index E13G22 Wind - East Wind 13 mph/Gusts of 22 mph